Wetterdaten: aktuell Freitag, 23.02.2018 03:00
Datum Zeit Temperatur Bodentemp. Luftfeuchte Luftdruck Niederschlag Windgeschw. Windrichtung Windrichtung Sonnenschein Nieder.dauer Evapotrans. Solarstrahl. Taupunkt Windchill Windben
23.02.2018 03:00 -1,3 C -2,2 C 92 % 1026,7 hPa 0,0 l/m 0,0 km/h (0 Bft) N 0 0 min 0 min 0 mm 0 W/m -2,4 C -1,3 C 0,0 km/h (0 Bft)
23.02.2018 02:00 -0,4 C -1,1 C 93 % 1026,9 hPa 0,0 l/m 0,0 km/h (0 Bft) N 0 0 min 0 min 0 mm 0 W/m -1,4 C -0,4 C 0,0 km/h (0 Bft)
23.02.2018 01:00 -0,4 C -1,1 C 93 % 1026,9 hPa 0,0 l/m 0,0 km/h (0 Bft) NO 45 0 min 0 min 0 mm 0 W/m -1,4 C -0,4 C 3,6 km/h (1 Bft)
23.02.2018 00:00 -0,3 C -0,6 C 94 % 1026,8 hPa 0,0 l/m 1,8 km/h (1 Bft) O-NO 67 0 min 0 min 0 mm 0 W/m -1,1 C -0,3 C 7,2 km/h (2 Bft)
22.02.2018 23:00 -0,9 C -0,6 C 95 % 1026,7 hPa 0,0 l/m 1,8 km/h (1 Bft) O-NO 67 0 min 0 min 0 mm 0 W/m -1,6 C -0,9 C 5,4 km/h (1 Bft)
22.02.2018 22:00 -1,6 C -2,2 C 93 % 1026,6 hPa 0,0 l/m 0,0 km/h (0 Bft) N 0 0 min 0 min 0 mm 0 W/m -2,6 C -1,6 C 0,0 km/h (0 Bft)
22.02.2018 21:00 -1,3 C -2,2 C 93 % 1026,5 hPa 0,0 l/m 0,0 km/h (0 Bft) N 0 0 min 0 min 0 mm 0 W/m -2,3 C -1,3 C 0,0 km/h (0 Bft)
22.02.2018 20:00 -0,6 C -2,2 C 94 % 1026,6 hPa 0,0 l/m 0,0 km/h (0 Bft) N 0 0 min 0 min 0 mm 0 W/m -1,4 C -0,6 C 0,0 km/h (0 Bft)
22.02.2018 19:00 -0,4 C -1,1 C 92 % 1026,6 hPa 0,0 l/m 0,0 km/h (0 Bft) N 0 0 min 0 min 0 mm 0 W/m -1,5 C -0,4 C 0,0 km/h (0 Bft)
22.02.2018 18:00 0,5 C -1,7 C 87 % 1026,2 hPa 0,0 l/m 0,0 km/h (0 Bft) N 0 6 min 0 min 0 mm 0 W/m -1,4 C 0,5 C 0,0 km/h (0 Bft)
22.02.2018 17:00 1,7 C 1,1 C 88 % 1026,2 hPa 0,0 l/m 0,0 km/h (0 Bft) NO 45 37 min 0 min 0 mm 32 W/m -0,1 C 1,7 C 1,8 km/h (1 Bft)
22.02.2018 16:00 1,8 C 1,1 C 90 % 1026,1 hPa 0,0 l/m 0,0 km/h (0 Bft) N 0 13 min 0 min 0 mm 163 W/m 0,3 C 1,8 C 0,0 km/h (0 Bft)
22.02.2018 15:00 1,3 C 1,7 C 92 % 1026,6 hPa 0,0 l/m 0,0 km/h (0 Bft) N 0 9 min 0 min 0 mm 223 W/m 0,1 C 1,3 C 0,0 km/h (0 Bft)
22.02.2018 14:00 1,2 C 1,1 C 92 % 1027,1 hPa 0,0 l/m 0,0 km/h (0 Bft) N 0 0 min 0 min 0 mm 47 W/m 0,0 C 1,2 C 0,0 km/h (0 Bft)
22.02.2018 13:00 1,3 C 1,7 C 91 % 1027,3 hPa 0,0 l/m 0,0 km/h (0 Bft) N 0 0 min 0 min 0 mm 69 W/m -0,0 C 1,3 C 0,0 km/h (0 Bft)
22.02.2018 12:00 0,9 C 2,2 C 93 % 1027,3 hPa 0,0 l/m 0,0 km/h (0 Bft) N 0 0 min 0 min 0 mm 174 W/m -0,1 C 0,9 C 0,0 km/h (0 Bft)
22.02.2018 11:00 0,5 C 1,1 C 99 % 1027,2 hPa 0,0 l/m 0,0 km/h (0 Bft) N 0 0 min 0 min 0 mm 86 W/m 0,4 C 0,5 C 0,0 km/h (0 Bft)
22.02.2018 10:00 0,1 C 0,6 C 99 % 1027,3 hPa 0,0 l/m 0,0 km/h (0 Bft) N 0 0 min 0 min 0 mm 44 W/m -0,0 C 0,1 C 0,0 km/h (0 Bft)
22.02.2018 09:00 -0,3 C 0,0 C 99 % 1027,0 hPa 0,0 l/m 0,0 km/h (0 Bft) N 0 0 min 6 min 0 mm 26 W/m -0,4 C -0,3 C 0,0 km/h (0 Bft)
22.02.2018 08:00 -0,8 C -0,6 C 98 % 1027,1 hPa 0,2 l/m 0,0 km/h (0 Bft) N 0 0 min 29 min 0 mm 11 W/m -1,1 C -0,8 C 0,0 km/h (0 Bft)
22.02.2018 07:00 -0,9 C -1,1 C 98 % 1027,0 hPa 0,0 l/m 0,0 km/h (0 Bft) N 0 0 min 11 min 0 mm 0 W/m -1,2 C -0,9 C 0,0 km/h (0 Bft)
22.02.2018 06:00 -1,1 C -1,1 C 98 % 1027,0 hPa 0,0 l/m 0,0 km/h (0 Bft) N 0 0 min 32 min 0 mm 0 W/m -1,4 C -1,1 C 0,0 km/h (0 Bft)
22.02.2018 05:00 -1,1 C -1,1 C 98 % 1027,2 hPa 0,0 l/m 0,0 km/h (0 Bft) N 0 0 min 11 min 0 mm 0 W/m -1,4 C -1,1 C 0,0 km/h (0 Bft)
22.02.2018 04:00 -1,4 C -1,1 C 98 % 1027,2 hPa 0,0 l/m 0,0 km/h (0 Bft) N 0 0 min 0 min 0 mm 0 W/m -1,7 C -1,4 C 0,0 km/h (0 Bft)
_ Min-Zeit 22:02 21:07 17:22 16:00 - 04:00 - - - - - - 22:02 22:02 04:00
Minimum _ -1,7 C -2,8 C 87 % 1026,1 hPa - 0,0 km/h (0 Bft) - - - - - - -2,7 C -1,7 C 0,0 km/h (0 Bft)
_ Max-Zeit 15:48 12:10 08:15 10:00 07:09 12:27 - - 14:52 04:03 12:00 14:52 15:48 15:48 22:55
Maximum _ 1,8 C 2,8 C 99 % 1027,3 hPa 0,2 l/m 7,2 km/h
N-NW (2 Bft)
- - 1 min 1 min 0 mm 387 W/m 0,5 C 1,8 C 14,4 km/h
NO (3 Bft)
Durchschnitt _ -0,2 C -0,5 C 94 % 1026,9 hPa #0,2 l/m 0,1 km/h (0 Bft) O-NO - #0 min. #0 min. #0,000 mm 0 W/m -1,0 C -0,2 C 0,6 km/h (0 Bft)